| time (UTC) | temp C | wind direction | speed KPH | gust KPH | rain 1hr cm | rain 24hr cm | rain mn cm | humidity % | barometer mb |
| 20260505064535 | 8 | 149 | 3.2 | 0.0 | 0.00 | 0.00 | 0.46 | 91 | 997.7 |
| 20260505063041 | 8 | 114 | 3.2 | 0.0 | 0.00 | 0.00 | 0.46 | 91 | 997.7 |
| 20260505061603 | 8 | 135 | 4.8 | 0.0 | 0.00 | 0.00 | 0.46 | 91 | 995.5 |
| 20260505060034 | 8 | 123 | 1.6 | 0.0 | 0.00 | 0.00 | 0.46 | 91 | 995.5 |
| 20260505054534 | 8 | 155 | 1.6 | 0.0 | 0.00 | 0.00 | 0.46 | 92 | 995.5 |
| 20260505053040 | 8 | 116 | 1.6 | 0.0 | 0.00 | 0.00 | 0.46 | 92 | 995.5 |
| 20260505051554 | 8 | 146 | 1.6 | 0.0 | 0.00 | 0.00 | 0.46 | 92 | 996.3 |
| 20260505041532 | 8 | 214 | 1.6 | 0.0 | 0.00 | 0.00 | 0.46 | 91 | 997.6 |
| 20260505040028 | 8 | 243 | 3.2 | 0.0 | 0.00 | 0.00 | 0.46 | 90 | 997.5 |
| 20260505034530 | 8 | 223 | 1.6 | 0.0 | 0.00 | 0.00 | 0.41 | 89 | 997.9 |
| 20260505033029 | 8 | 302 | 8.0 | 0.0 | 0.00 | 0.00 | 0.36 | 88 | 997.1 |
| 20260505031521 | 9 | 283 | 12.9 | 0.0 | 0.00 | 0.00 | 0.28 | 85 | 997.2 |
| 20260505030018 | 10 | 234 | 8.0 | 0.0 | 0.00 | 0.00 | 0.23 | 78 | 996.8 |
| 20260505024516 | 10 | 308 | 8.0 | 0.0 | 0.00 | 0.00 | 0.23 | 74 | 996.5 |
| 20260505023016 | 11 | 304 | 6.4 | 0.0 | 0.00 | 0.00 | 0.23 | 72 | 995.6 |
| 20260505021515 | 11 | 325 | 4.8 | 0.0 | 0.00 | 0.00 | 0.23 | 69 | 996.8 |
| 20260505020013 | 12 | 133 | 0.0 | 0.0 | 0.00 | 0.00 | 0.23 | 64 | 996.7 |
| 20260505014513 | 12 | 132 | 0.0 | 0.0 | 0.00 | 0.00 | 0.23 | 64 | 996.2 |
| 20260505013012 | 12 | 132 | 0.0 | 0.0 | 0.00 | 0.00 | 0.23 | 64 | 996.5 |
| 20260505011515 | 12 | 109 | 1.6 | 0.0 | 0.00 | 0.00 | 0.23 | 63 | 996.4 |
| 20260505010011 | 12 | 76 | 1.6 | 0.0 | 0.00 | 0.00 | 0.23 | 61 | 996.5 |
| 20260505004510 | 13 | 289 | 3.2 | 0.0 | 0.00 | 0.00 | 0.23 | 58 | 996.3 |
| 20260505003018 | 14 | 288 | 3.2 | 0.0 | 0.00 | 0.00 | 0.23 | 56 | 996.1 |
| 20260505001510 | 15 | 236 | 4.8 | 0.0 | 0.00 | 0.00 | 0.23 | 57 | 995.6 |
| 20260505000009 | 15 | 286 | 4.8 | 0.0 | 0.00 | 0.00 | 0.23 | 50 | 995.5 |
| 20260504234511 | 15 | 294 | 8.0 | 0.0 | 0.00 | 0.00 | 0.23 | 48 | 995.1 |
| 20260504233009 | 15 | 264 | 9.7 | 0.0 | 0.00 | 0.00 | 0.23 | 47 | 995.1 |
| 20260504231507 | 16 | 356 | 11.3 | 0.0 | 0.00 | 0.00 | 0.23 | 46 | 994.7 |
| 20260504230007 | 16 | 296 | 12.9 | 0.0 | 0.00 | 0.00 | 0.23 | 44 | 994.2 |
| 20260504224506 | 17 | 347 | 8.0 | 0.0 | 0.00 | 0.00 | 0.23 | 42 | 994.7 |
| 20260504223006 | 16 | 279 | 9.7 | 0.0 | 0.00 | 0.00 | 0.23 | 46 | 994.8 |
| 20260504221510 | 16 | 296 | 9.7 | 0.0 | 0.00 | 0.00 | 0.23 | 44 | 994.4 |
| 20260504220005 | 17 | 317 | 9.7 | 0.0 | 0.00 | 0.00 | 0.23 | 40 | 993.6 |
| 20260504214504 | 18 | 352 | 11.3 | 0.0 | 0.00 | 0.00 | 0.23 | 38 | 991.8 |
| 20260504213005 | 21 | 25 | 4.8 | 0.0 | 0.00 | 0.00 | 0.23 | 31 | 992.2 |
| 20260504211504 | 20 | 337 | 6.4 | 0.0 | 0.00 | 0.00 | 0.23 | 35 | 993.3 |
| 20260504210003 | 18 | 52 | 3.2 | 0.0 | 0.00 | 0.00 | 0.23 | 37 | 993.6 |
| 20260504204503 | 18 | 115 | 1.6 | 0.0 | 0.00 | 0.00 | 0.23 | 38 | 994.3 |
| 20260504203003 | 17 | 283 | 6.4 | 0.0 | 0.00 | 0.00 | 0.23 | 47 | 995.0 |
| 20260504201502 | 16 | 352 | 6.4 | 0.0 | 0.00 | 0.00 | 0.23 | 50 | 994.6 |
| 20260504200002 | 15 | 40 | 6.4 | 0.0 | 0.00 | 0.00 | 0.23 | 56 | 995.1 |
| 20260504194501 | 13 | 56 | 4.8 | 0.0 | 0.00 | 0.00 | 0.23 | 62 | 996.1 |
| 20260504193005 | 12 | 187 | 6.4 | 0.0 | 0.00 | 0.00 | 0.23 | 69 | 995.7 |
| 20260504191558 | 13 | 117 | 14.5 | 0.0 | 0.00 | 0.00 | 0.18 | 60 | 994.0 |
| 20260504190128 | 16 | 147 | 12.9 | 0.0 | 0.00 | 0.00 | 0.00 | 41 | 992.5 |
| 20260504184555 | 20 | 320 | 9.7 | 0.0 | 0.00 | 0.00 | 0.00 | 31 | 991.8 |
| 20260504183055 | 21 | 333 | 6.4 | 0.0 | 0.00 | 0.00 | 0.00 | 26 | 991.3 |
| 20260504181556 | 22 | 48 | 9.7 | 0.0 | 0.00 | 0.00 | 0.00 | 26 | 990.2 |
| 20260504180054 | 23 | 323 | 8.0 | 0.0 | 0.00 | 0.00 | 0.00 | 25 | 990.1 |
| 20260504174558 | 24 | 321 | 6.4 | 0.0 | 0.00 | 0.00 | 0.00 | 25 | 990.8 |
| 20260504173049 | 23 | 94 | 3.2 | 0.0 | 0.00 | 0.00 | 0.00 | 26 | 991.1 |
| 20260504171548 | 23 | 8 | 4.8 | 0.0 | 0.00 | 0.00 | 0.00 | 27 | 991.1 |
| 20260504081549 | 11 | 135 | 0.0 | 0.0 | 0.00 | 0.00 | 0.00 | 45 | 994.7 |